This demonstration page uses our WeatherBlox Daily Observations layout. Learn more.

Left ArrowRight Arrow

Hourly Observations for January 11, 2015

Temp ( °F °C ) Dew Point ( °F °C ) Humidity (%) Winds ( mph kmh ) Pressure ( in mb ) Visibility ( mi km ) Precip ( " mm )
12:16 am 00:16 Mostly Cloudy 23 -5 1 -17 39 39 SSW 7 11 30.45 1031 10 16.0934 N/A
12:35 am 00:35 Mostly Cloudy 23 -5 1 -17 39 39 S 7 11 30.45 1031 10 16.0934 N/A
12:55 am 00:55 Mostly Cloudy 23 -5 3 -16 42 42 S 7 11 30.45 1031 10 16.0934 N/A
1:15 am 01:15 Partly Cloudy 23 -5 3 -16 42 42 S 9 15 30.42 1030 10 16.0934 N/A
1:35 am 01:35 Partly Cloudy 21 -6 3 -16 45 45 S 7 11 30.42 1030 10 16.0934 N/A
1:55 am 01:55 Partly Cloudy 23 -5 3 -16 42 42 S 8 13 30.42 1030 10 16.0934 N/A
2:15 am 02:15 Mostly Cloudy 23 -5 3 -16 42 42 S 6 9 30.42 1030 10 16.0934 N/A
2:35 am 02:35 Mostly Cloudy 23 -5 5 -15 46 46 S 8 13 30.42 1030 10 16.0934 N/A
2:55 am 02:55 Mostly Cloudy 23 -5 3 -16 42 42 S 8 13 30.42 1030 10 16.0934 N/A
3:15 am 03:15 Mostly Cloudy 23 -5 3 -16 42 42 S 7 11 30.42 1030 10 16.0934 N/A
3:35 am 03:35 Mostly Cloudy 23 -5 5 -15 46 46 S 7 11 30.42 1030 10 16.0934 N/A
3:55 am 03:55 Cloudy 23 -5 5 -15 46 46 S 7 11 30.42 1030 10 16.0934 N/A
4:16 am 04:16 Cloudy 23 -5 5 -15 46 46 S 5 7 30.45 1031 10 16.0934 N/A
4:35 am 04:35 Cloudy 23 -5 5 -15 46 46 S 6 9 30.42 1030 10 16.0934 N/A
4:55 am 04:55 Cloudy 25 -4 5 -15 42 42 S 6 9 30.42 1030 10 16.0934 N/A
5:15 am 05:15 Cloudy 25 -4 5 -15 42 42 S 5 7 30.42 1030 10 16.0934 N/A
5:35 am 05:35 Cloudy 25 -4 5 -15 42 42 S 6 9 30.42 1030 10 16.0934 N/A
5:55 am 05:55 Cloudy 25 -4 7 -14 46 46 Calm 30.42 1030 10 16.0934 N/A
6:15 am 06:15 Cloudy 25 -4 7 -14 46 46 S 6 9 30.42 1030 10 16.0934 N/A
6:35 am 06:35 Cloudy 25 -4 7 -14 46 46 S 3 6 N/A 10 16.0934 N/A
6:56 am 06:56 Mostly Cloudy 25 -4 7 -14 46 46 S 5 7 30.42 1030 10 16.0934 N/A
7:15 am 07:15 Mostly Cloudy 25 -4 7 -14 46 46 S 5 7 30.42 1030 10 16.0934 N/A
7:35 am 07:35 Partly Cloudy 27 -3 7 -14 43 43 SSE 5 7 30.42 1030 10 16.0934 N/A
7:56 am 07:56 Partly Cloudy 27 -3 9 -13 46 46 SSE 5 7 30.42 1030 10 16.0934 N/A
8:15 am 08:15 Partly Cloudy 27 -3 7 -14 43 43 S 6 9 30.42 1030 10 16.0934 N/A
8:35 am 08:35 Mostly Cloudy 27 -3 9 -13 46 46 S 6 9 30.42 1030 10 16.0934 N/A
8:55 am 08:55 Cloudy 27 -3 9 -13 46 46 S 7 11 30.42 1030 10 16.0934 N/A
9:15 am 09:15 Cloudy 27 -3 9 -13 46 46 S 7 11 30.42 1030 10 16.0934 N/A
9:35 am 09:35 Mostly Cloudy 28 -2 9 -13 43 43 S 7 11 30.39 1029 10 16.0934 N/A
9:55 am 09:55 Mostly Cloudy 28 -2 9 -13 43 43 S 9 15 30.39 1029 10 16.0934 N/A
10:15 am 10:15 Mostly Cloudy 28 -2 9 -13 43 43 S 9 15 30.39 1029 10 16.0934 N/A
10:35 am 10:35 Cloudy 28 -2 9 -13 43 43 S 7 11 30.39 1029 10 16.0934 N/A
10:55 am 10:55 Mostly Cloudy 30 -1 9 -13 40 40 S 8 13 30.39 1029 10 16.0934 N/A
11:16 am 11:16 Partly Cloudy 30 -1 9 -13 40 40 S 7 11 30.39 1029 10 16.0934 N/A
11:35 am 11:35 Partly Cloudy 30 -1 9 -13 40 40 S 8 13 30.36 1028 10 16.0934 N/A
11:55 am 11:55 Partly Cloudy 32 0 9 -13 37 37 S 7 11 30.36 1028 10 16.0934 N/A
12:15 pm 12:15 Mostly Cloudy 32 0 9 -13 37 37 SSW 7 11 30.36 1028 10 16.0934 N/A
12:35 pm 12:35 Cloudy 32 0 7 -14 34 34 S 7 11 30.36 1028 10 16.0934 N/A
12:56 pm 12:56 Cloudy 32 0 9 -13 37 37 S 6 9 30.36 1028 10 16.0934 N/A
1:15 pm 13:15 Cloudy 32 0 10 -12 40 40 S 6 9 30.36 1028 10 16.0934 N/A
1:35 pm 13:35 Cloudy 32 0 10 -12 40 40 S 7 11 30.36 1028 10 16.0934 N/A
1:55 pm 13:55 Mostly Cloudy 32 0 10 -12 40 40 S 7 11 30.36 1028 10 16.0934 N/A
2:15 pm 14:15 Cloudy 32 0 12 -11 44 44 SSE 6 9 30.33 1027 10 16.0934 N/A
2:35 pm 14:35 Mostly Cloudy 32 0 12 -11 44 44 S 6 9 30.33 1027 10 16.0934 N/A
2:55 pm 14:55 Mostly Cloudy 32 0 12 -11 44 44 S 6 9 30.33 1027 10 16.0934 N/A
3:15 pm 15:15 Mostly Cloudy 32 0 12 -11 44 44 SSE 3 6 30.33 1027 10 16.0934 N/A
3:36 pm 15:36 Cloudy 32 0 12 -11 44 44 S 6 9 30.33 1027 10 16.0934 N/A
3:55 pm 15:55 Cloudy 32 0 12 -11 44 44 S 6 9 30.33 1027 10 16.0934 N/A
4:15 pm 16:15 Cloudy 32 0 14 -10 47 47 S 6 9 30.33 1027 10 16.0934 N/A
4:35 pm 16:35 Cloudy 34 1 14 -10 44 44 S 8 13 30.33 1027 10 16.0934 N/A
4:55 pm 16:55 Mostly Cloudy 34 1 14 -10 44 44 SSW 7 11 30.33 1027 10 16.0934 N/A
5:16 pm 17:16 Cloudy 34 1 16 -9 48 48 SSW 5 7 30.36 1028 7 11.26538 N/A
5:35 pm 17:35 Cloudy 32 0 19 -7 60 60 S 3 6 30.36 1028 7 11.26538 N/A
5:55 pm 17:55 Cloudy 32 0 19 -7 60 60 S 5 7 30.36 1028 5 8.0467 N/A
6:15 pm 18:15 Cloudy 32 0 21 -6 64 64 S 7 11 30.36 1028 4 6.43736 N/A
6:35 pm 18:35 Cloudy 32 0 23 -5 69 69 S 8 13 30.36 1028 5 8.0467 N/A
6:55 pm 18:55 Cloudy 32 0 23 -5 69 69 S 7 11 30.36 1028 5 8.0467 N/A
7:15 pm 19:15 Cloudy 32 0 28 -2 87 87 S 8 13 30.33 1027 5 8.0467 N/A
7:35 pm 19:35 Cloudy 32 0 32 0 100 100 S 8 13 30.33 1027 5 8.0467 N/A
7:55 pm 19:55 Cloudy 32 0 N/A N/A S 9 15 30.33 1027 5 8.0467 N/A
8:15 pm 20:15 Cloudy 32 0 N/A N/A S 9 15 30.33 1027 5 8.0467 N/A
8:35 pm 20:35 Cloudy 32 0 N/A N/A S 12 19 30.33 1027 5 8.0467 N/A
8:55 pm 20:55 Cloudy 32 0 N/A N/A SSW 7 11 30.33 1027 5 8.0467 N/A
9:15 pm 21:15 Cloudy 32 0 N/A N/A S 7 11 30.33 1027 4 6.43736 N/A
9:35 pm 21:35 Cloudy 32 0 N/A N/A SSW 6 9 30.33 1027 4 6.43736 N/A
9:55 pm 21:55 Cloudy 32 0 N/A N/A S 5 7 30.3 1026 4 6.43736 N/A
10:15 pm 22:15 Cloudy 32 0 N/A N/A S 5 7 30.3 1026 4 6.43736 N/A
10:36 pm 22:36 Cloudy 32 0 N/A N/A S 6 9 30.3 1026 3 4.82802 N/A
10:55 pm 22:55 Cloudy 32 0 N/A N/A S 5 7 30.3 1026 2.5 4.02335 N/A
11:15 pm 23:15 Cloudy 32 0 N/A N/A S 5 7 30.27 1025 3 4.82802 N/A
11:36 pm 23:36 Cloudy 32 0 N/A N/A S 5 7 30.27 1025 3 4.82802 N/A
11:55 pm 23:55 Cloudy 32 0 N/A N/A S 6 9 30.27 1025 3 4.82802 N/A

Powered by AerisWeather